Flag for Switzerland Weather past 2 weeks in Chur, Graubünden, Switzerland

Now
28 °F

Chilly.


Feels Like: 28 °F
Forecast: 17 / 38 °F
Wind: 1 mph from North

Location: Chur-Ems

Current Time: Jan 31, 2015 at 5:42:45 AM

Latest Report: Jan 31, 2015 at 5:00 AM


Visibility: N/A

Pressure: 29.15 "Hg

Humidity: 89%

Dew point: 25 °F

Location of ChurLocation

Historic Weather in Chur — Graph

°F

Chur temperature yesterday

Maximum temperature yesterday: 39 °F (at 12:00 AM)
Minimum temperature yesterday: 29 °F (at 6:00 PM)
Average temperature yesterday: 33 °F

Past Weeks' High & Low Weather Summary

 TemperatureHumidityPressure
High54 °F (Jan 16, 11:00 AM)96% (Jan 27, 5:00 AM)30.49 "Hg (Jan 27, 5:00 AM)
Low24 °F (Jan 26, 8:00 AM)41% (Jan 26, 1:00 PM)28.88 "Hg (Jan 30, 3:00 AM)
Average34 °F75%29.95 "Hg
* Reported Jan 16 3:00 AM — Jan 31 3:00 AM, Chur, Weather by CustomWeather, © 2014

Note: Actual official high and low records may vary slightly from our data, if they occured in-between our weather recording intervals... More about our weather records

Advertising

Chur weather history for previous 24 hours

 ConditionsComfort  
Time TempWeatherWind HumidityBarometerVisibility
3:00 AM
Jan 31
29 °FChilly.2 mph85%29.12 "HgN/A
2:00 AM29 °FChilly.1 mph86%29.12 "HgN/A
1:00 AM29 °FLight snow. Low clouds.3 mph88%29.09 "Hg1 mi
12:00 AM30 °FChilly.5 mph76%29.06 "HgN/A
11:00 PM
Jan 30
30 °FChilly.8 mph80%29.06 "HgN/A
10:00 PM31 °FFog.5 mph75%29.03 "Hg5 mi
9:00 PM30 °FChilly.3 mph81%29.03 "HgN/A
8:00 PM31 °FChilly.5 mph81%29.03 "HgN/A
7:00 PM31 °FFog.6 mph83%29.03 "Hg3 mi
6:00 PM29 °FChilly.2 mph88%29.03 "HgN/A
5:00 PM31 °FChilly.1 mph84%29.03 "HgN/A
4:00 PM32 °FFog.1 mph75%29.03 "Hg2 mi
3:00 PM33 °FChilly.2 mph69%29.00 "HgN/A
2:00 PM33 °FChilly.6 mph63%29.03 "HgN/A
1:00 PM34 °FLow clouds.8 mph58%29.03 "Hg2 mi
12:00 PM35 °FChilly.6 mph52%29.03 "HgN/A
11:00 AM34 °FChilly.13 mph51%29.06 "HgN/A
10:00 AM34 °FChilly.13 mph53%29.06 "HgN/A
9:00 AM34 °FChilly.13 mph51%29.06 "HgN/A
8:00 AM33 °FChilly.16 mph59%29.03 "HgN/A
7:00 AM33 °FSnow. Low clouds.17 mph75%29.00 "Hg1 mi
6:00 AM33 °FChilly.5 mph90%28.94 "HgN/A
5:00 AM33 °FChilly.20 mph89%28.94 "HgN/A
Weather by CustomWeather, © 2014

See weather overviewHow to use our weather pages